EUTELSAT 7 WEST A

Last updated on Jan. 20, 2020, 4:31 a.m. UTC

1 37816U 11051A   20019.81191578 -.00000066  00000-0  00000+0 0  9997
2 37816   0.0601  28.5636 0004754 188.1792 186.8676  1.00271904 30504
UTC
Height (km)
Latitude
Longitude
Inclination
Orbital Period
UTC large
Height (km)
Speed (km/s)
/
Latitude / Longitude
Inclination (degrees)
Orbital Period (minutes)
Azimuth
Elevation
Range (km)
Doppler Factor
iOS Compass Heading
iOS Angle

Next 30 passes for location: Hong Kong

Rise time Rise Azimuth (degrees) Set time Set Azimuth (degrees) Duration Max altitude (degrees)

No matching passes for this satellites